Weather in Kasur

Pakistan     31°07′00″N   74°27′27″E
temp.,
°C
wind,
m/s
gust,
m/s
humid.,
%
clouds,
%
prec.,
mm/h
press.,
hPa
HPBL,
m
11 may, tue
tue1123:00+30s1129100 0.6 100212
02:00+29ene223189 0.1 100235
05:00+27e23385 0.3 100233
08:00+33se3426100 0.4 1004616
11:00+37s4320100 0.9 10031753
14:00+40w2415100 0.0 10003193
17:00+40nnw351424 0.0 9974015
20:00+35ne34194 0.0 99849
12 may, wed
wed1223:00+32w233095 0.0 100046
02:00+30nne2231100 0.0 99827
05:00+28ene263625 0.0 1000164
08:00+33ene3328100 0.0 1001506
11:00+38e5420100 0.0 10001993
14:00+38ese561524 0.4 9982741
17:00+30ssw81336100 1.1 998763
20:00+28ene3442100 0.8 1000267
13 may, thu
thu1323:00+28sse3841100 0.9 997234
02:00+26ene114538 0.3 99920
05:00+25ese224618 0.4 100018
08:00+30ese4434100 0.0 1002647
11:00+35ese332411 0.0 10012364
14:00+34ene76289 0.9 9991088
17:00+33ene87310 2.7 999877
20:00+27sse7949100 1.8 1001655
14 may, fri
fri1423:00+26ese48480 1.8 1000259
02:00+25e37561 0.1 1000267
05:00+24ese48604 0.1 1001274
08:00+29ese57452 0.0 1003600
11:00+35ese56305 0.0 10021370
14:00+38ese43231 0.0 10002852
17:00+38ese32231 0.0 9973161
20:00+33ene41028100 0.1 999332
15 may, sat
sat1523:00+29w61042100 1.2 1003525
02:00+28ne4739100 0.4 1001179
05:00+28e3542100 0.4 100193
08:00+31n6630100 0.0 1004758
11:00+37nne241930 0.0 10021927
14:00+39nnw55155 0.0 10003073
17:00+39nnw431593 0.0 9982612
20:00+35nne34219 0.0 100061